Date String (YYYY-MM-DD hh:mm:ss) UTC,Instrument flags,Ambient pressure (hPa),Sample flow (lpm),Bypass flow (lpm),Sample temperature (°C),Ambient temperature (°C),ASC tube jacket temperature (°C),LED temperature (°C),Box temperature (°C),Sample RH (%),Span deviation,Mass concentration (μg/m³),Mass concentration (μg/m³),Mass concentration (μg/m³)
DateTimeUTC,F1_M11,P_M11,Q1_M11,Q2_M11,T1_M11,T2_M11,T3_M11,T4_M11,T5_M11,U1_M11,ZSPAN_M11,X2_M11,X0_M11,X1_M11
2021-09-20 19:00:00,,0829.3,5.00,0.00,29.9,28.3,00.0,39.0,31.6,11.5,0000.0,0003.09,0011.13,0001.81
2021-09-20 19:01:00,,0829.3,5.01,0.00,29.9,28.5,00.0,39.0,31.7,11.5,0000.0,0003.08,0011.40,0001.82
2021-09-20 19:02:00,,0829.2,5.00,0.00,29.9,28.7,00.0,39.0,31.7,11.3,0000.0,0002.98,0011.60,0001.82
2021-09-20 19:03:00,,0829.3,4.99,0.00,30.0,28.9,00.0,39.0,31.8,11.2,0000.0,0002.89,0011.50,0001.81
2021-09-20 19:04:00,,0829.3,5.01,0.00,30.0,29.0,00.0,39.0,31.9,11.3,0000.0,0002.87,0011.07,0001.80
2021-09-20 19:05:00,,0829.3,5.00,0.00,30.1,29.1,00.0,39.0,31.9,11.4,0000.0,0002.92,0011.39,0001.80
2021-09-20 19:06:00,,0829.2,5.01,0.00,30.1,29.2,00.0,39.1,32.0,11.1,0000.0,0002.92,0012.00,0001.79
2021-09-20 19:07:00,,0829.2,5.01,0.00,30.1,28.1,00.0,39.1,31.7,11.1,0000.0,0002.91,0012.10,0001.78
2021-09-20 19:08:00,,0829.2,5.00,0.00,29.9,26.1,00.0,39.0,31.0,10.7,0000.0,0002.90,0011.42,0001.77
2021-09-20 19:09:00,,0829.3,5.00,0.00,29.8,25.9,00.0,39.0,31.0,10.5,0000.0,0002.83,0011.43,0001.74
2021-09-20 19:10:00,,0829.3,5.01,0.00,29.7,26.4,00.0,39.0,31.1,11.6,0000.0,0002.79,0013.33,0001.72
2021-09-20 19:11:00,,0829.2,5.00,0.00,29.6,26.9,00.0,38.9,31.2,11.6,0000.0,0002.72,0012.30,0001.71
2021-09-20 19:12:00,,0829.2,4.99,0.00,29.6,27.3,00.0,38.9,31.3,11.6,0000.0,0002.76,0012.16,0001.71
2021-09-20 19:13:00,,0829.3,5.02,0.00,29.7,27.7,00.0,38.8,31.4,11.8,0000.0,0002.82,0011.82,0001.72
2021-09-20 19:14:00,,0829.2,4.99,0.00,29.7,28.1,00.0,38.8,31.4,11.8,0000.0,0002.85,0012.16,0001.73
2021-09-20 19:15:00,,0829.2,5.01,0.00,29.7,28.3,00.0,38.8,31.5,11.1,0000.0,0002.84,0013.34,0001.73
2021-09-20 19:16:00,,0829.2,4.99,0.00,29.8,28.5,00.0,38.8,31.6,08.4,0000.0,0002.75,0014.50,0001.68
2021-09-20 19:17:00,,0829.1,5.00,0.00,29.8,28.7,00.0,38.8,31.7,08.5,0000.0,0002.62,0014.15,0001.63
2021-09-20 19:18:00,,0829.0,5.00,0.00,29.9,28.9,00.0,38.9,31.7,09.1,0000.0,0002.56,0013.86,0001.60
2021-09-20 19:19:00,,0829.2,5.01,0.00,29.9,29.0,00.0,38.9,31.8,10.4,0000.0,0002.52,0013.54,0001.58
2021-09-20 19:20:00,,0829.2,4.99,0.00,30.0,29.1,00.0,38.9,31.8,10.9,0000.0,0002.51,0012.86,0001.59
2021-09-20 19:21:00,,0829.3,5.02,0.00,30.0,29.2,00.0,38.9,31.9,11.3,0000.0,0002.44,0011.28,0001.59
2021-09-20 19:22:00,,0829.3,5.00,0.00,30.1,29.3,00.0,39.0,31.9,11.1,0000.0,0002.40,0011.45,0001.59
2021-09-20 19:23:00,,0829.3,5.01,0.00,30.1,29.0,00.0,39.0,31.9,11.1,0000.0,0002.31,0011.97,0001.56
2021-09-20 19:24:00,,0829.2,4.99,0.00,30.0,27.0,00.0,39.0,31.3,10.4,0000.0,0002.23,0012.15,0001.54
2021-09-20 19:25:00,,0829.1,4.99,0.00,29.8,25.8,00.0,38.9,31.0,10.1,0000.0,0002.16,0011.72,0001.50
2021-09-20 19:26:00,,0829.2,5.02,0.00,29.7,26.1,00.0,38.9,31.1,11.2,0000.0,0002.16,0010.58,0001.50
2021-09-20 19:27:00,,0829.2,5.00,0.00,29.6,26.6,00.0,38.9,31.2,11.3,0000.0,0002.19,0009.66,0001.55
2021-09-20 19:28:00,,0829.2,5.00,0.00,29.6,27.1,00.0,38.8,31.2,11.4,0000.0,0002.32,0010.03,0001.62
2021-09-20 19:29:00,,0829.3,5.01,0.00,29.6,27.5,00.0,38.8,31.3,11.2,0000.0,0002.46,0010.92,0001.68
2021-09-20 19:30:00,,0829.3,4.99,0.00,29.7,27.9,00.0,38.8,31.4,10.9,0000.0,0002.52,0010.72,0001.72
2021-09-20 19:31:00,,0829.3,5.01,0.00,29.7,28.2,00.0,38.8,31.5,10.5,0000.0,0002.60,0010.83,0001.72
2021-09-20 19:32:00,,0829.2,4.98,0.00,29.7,28.4,00.0,38.8,31.5,10.3,0000.0,0002.64,0011.13,0001.73
2021-09-20 19:33:00,,0829.1,5.00,0.00,29.8,28.6,00.0,38.8,31.6,10.2,0000.0,0002.67,0011.01,0001.72
2021-09-20 19:34:00,,0829.2,5.00,0.00,29.8,28.8,00.0,38.8,31.7,09.5,0000.0,0002.62,0010.46,0001.71
2021-09-20 19:35:00,,0829.2,5.00,0.00,29.9,28.9,00.0,38.8,31.7,09.9,0000.0,0002.58,0010.07,0001.70
2021-09-20 19:36:00,,0829.2,4.99,0.00,29.9,29.0,00.0,38.8,31.8,08.4,0000.0,0002.53,0009.58,0001.69
2021-09-20 19:37:00,,0829.3,5.00,0.00,29.9,29.1,00.0,38.9,31.8,08.0,0000.0,0002.44,0010.30,0001.66
2021-09-20 19:38:00,,0829.3,4.99,0.00,30.0,29.2,00.0,38.9,31.9,08.4,0000.0,0002.34,0010.73,0001.61
2021-09-20 19:39:00,,0829.2,5.00,0.00,30.0,29.2,00.0,38.9,31.9,08.2,0000.0,0002.23,0009.97,0001.57
2021-09-20 19:40:00,,0829.2,4.99,0.00,30.0,28.1,00.0,38.9,31.6,09.6,0000.0,0002.13,0009.36,0001.53
2021-09-20 19:41:00,,0829.2,5.00,0.00,29.8,26.1,00.0,38.9,31.0,08.3,0000.0,0002.01,0009.11,0001.48
2021-09-20 19:42:00,,0829.3,5.00,0.00,29.7,25.9,00.0,38.9,30.9,08.4,0000.0,0001.86,0008.71,0001.44
2021-09-20 19:43:00,,0829.3,5.01,0.00,29.6,26.3,00.0,38.8,31.0,09.7,0000.0,0001.86,0008.18,0001.42
2021-09-20 19:44:00,,0829.2,4.99,0.00,29.6,26.8,00.0,38.8,31.1,07.7,0000.0,0001.79,0007.92,0001.38
2021-09-20 19:45:00,,0829.2,5.00,0.00,29.6,27.2,00.0,38.8,31.2,07.3,0000.0,0001.73,0007.81,0001.36
2021-09-20 19:46:00,,0829.2,5.01,0.00,29.6,27.6,00.0,38.7,31.3,07.4,0000.0,0001.67,0007.68,0001.33
2021-09-20 19:47:00,,0829.2,5.00,0.00,29.6,28.0,00.0,38.7,31.4,07.2,0000.0,0001.65,0007.69,0001.30
2021-09-20 19:48:00,,0829.1,5.01,0.00,29.7,28.2,00.0,38.7,31.4,07.1,0000.0,0001.60,0006.02,0001.28
2021-09-20 19:49:00,,0829.0,4.99,0.00,29.7,28.4,00.0,38.7,31.5,07.4,0000.0,0001.61,0004.66,0001.27
2021-09-20 19:50:00,,0829.1,5.02,0.00,29.7,28.6,00.0,38.7,31.5,10.3,0000.0,0001.70,0005.39,0001.30
2021-09-20 19:51:00,,0829.3,4.98,0.00,29.8,28.8,00.0,38.8,31.6,10.9,0000.0,0001.76,0005.05,0001.34
2021-09-20 19:52:00,,0829.3,5.02,0.00,29.8,28.9,00.0,38.8,31.7,11.2,0000.0,0001.88,0006.33,0001.39
2021-09-20 19:53:00,,0829.2,4.99,0.00,29.9,29.0,00.0,38.8,31.8,11.1,0000.0,0002.08,0008.29,0001.46
2021-09-20 19:54:00,,0829.2,5.00,0.00,29.9,29.1,00.0,38.8,31.8,10.9,0000.0,0002.07,0008.61,0001.49
2021-09-20 19:55:00,,0829.2,5.01,0.00,30.0,29.2,00.0,38.9,31.9,10.5,0000.0,0002.16,0009.11,0001.54
2021-09-20 19:56:00,,0829.1,5.00,0.00,30.0,29.0,00.0,38.9,31.8,09.5,0000.0,0002.27,0009.68,0001.58
2021-09-20 19:57:00,,0829.1,5.01,0.00,29.9,27.3,00.0,38.9,31.4,10.3,0000.0,0002.37,0009.78,0001.62
2021-09-20 19:58:00,,0829.1,4.99,0.00,29.8,26.7,00.0,38.9,31.2,11.2,0000.0,0002.53,0010.58,0001.68
2021-09-20 19:59:00,,0829.1,5.00,0.00,29.8,27.0,00.0,38.9,31.3,11.2,0000.0,0002.70,0011.97,0001.75
